Find Local Weather

World > North America > United States > Virginia

Virginia Beach, Virginia Regional Weather

Lat: 36.85N, Lon: 75.98W
Wx Zone: VAZ098
Warning FLW WEATHER ALERT - (More Info. Click Here) Warning
Feedback

Virginia Beach, VA Regional Weather

Expires:201903230400;;777339
ASUS41 KAKQ 230314
RWRAKQ

REGIONAL WEATHER ROUNDUP
NATIONAL WEATHER SERVICE WAKEFIELD VA
1100 PM EDT FRI MAR 22 2019

Note: "fair" indicates few or no clouds below 12,000 feet with no
significant weather and/or obstructions to visibility. * = Denotes
station may not report precipitation (e.g., rain,snow,etc.),
thunder or fog.


VAZ088>098-230400-
SOUTHEAST VIRGINIA
  
CITY           SKY/WX    TMP DP  RH WIND       PRES   REMARKS
NORFOLK        FAIR      48  30  49 NW9G22    29.88R                  
VIRGINIA BEACH FAIR      45  34  65 NW20G28   29.85S                  
NORFOLK NAVAL  FAIR      47  29  49 NW26G39   29.90R                  
WEST POINT*    FAIR      44  30  57 W15G24    29.91R                  
SALUDA*        FAIR      43  31  63 W8        29.87R                  
NEWPORT NEWS   FAIR      46  28  49 NW17G26   29.89R                  
LANGLEY AFB    FAIR      45  28  51 NW23G29   29.88R                  
FORT EUSTIS    NOT AVBL                                               
WILLIAMSBURG*  FAIR      45  30  57 NW15      29.91R                  
HR EXEC AP*    FAIR      44  29  55 W5        29.91R                  
FRANKLIN*      FAIR      43  30  60 W8        29.93R                  
US460-WAKEFLD  FAIR      46  27  47 W8G24     29.92R                  
$$


SKY/WX - Weather  TMP - Temperature  DP - Dew Point  RH - Relative Humidity
WIND - Wind Direction/Speed PRES - Barometric Pressure VSB - Visibility
WCI - Wind Chill Index E13G22 Wind - East Wind 13 mph/Gusts of 22 mph